WORLDVIEW-1 (WV-1)
Last updated on Sun Jun 21 2026 00:02:51 GMT+0000 (Coordinated Universal Time)
1 32060U 07041A 26171.44311463 .00004743 00000+0 19700-3 0 9993
2 32060 97.3881 291.1401 0001947 10.6143 349.5135 15.24296645 43374
Next 0 passes for location: London (51.5072 / 0.1276)
No passes found over London.